Location: Hickory_CSC
(35.7330°N, 81.3330°W)
Time: 12:34:46
(UTC-04:00)

Cosmos 1356 Rocket - Visible Passes

Search period start: 04 September 2015 00:00
Search period end: 14 September 2015 00:00
Orbit: 547 x 602 km, 81.2° (Epoch: 02 September)

Date Brightness Start Highest point End Pass type
(mag) Time Alt. Az. Time Alt. Az. Time Alt. Az.
04 Sep 6.2 05:36:02 10° NNE 05:39:16 21° ENE 05:42:33 10° SE visible
05 Sep 5.6 05:38:59 10° NNE 05:42:40 29° ENE 05:46:20 10° SE visible
06 Sep 4.9 05:42:03 10° N 05:46:02 39° ENE 05:49:57 10° SSE visible
07 Sep 4.2 05:45:12 10° N 05:49:21 56° E 05:53:25 10° SSE visible
08 Sep 3.5 05:48:25 10° N 05:52:39 80° E 05:56:47 10° S visible
09 Sep 3.3 05:51:44 10° NNW 05:55:56 73° W 06:00:02 10° S visible
10 Sep 6.8 04:21:07 10° ENE 04:21:38 10° ENE 04:22:25 10° ENE visible
10 Sep 3.5 05:55:06 10° NNW 05:59:11 51° W 06:03:09 10° S visible
11 Sep 6.5 04:22:55 10° NE 04:25:06 14° ENE 04:27:26 10° ESE visible
11 Sep 3.9 05:58:34 10° NNW 06:02:25 36° W 06:06:10 10° SSW visible
12 Sep 6.0 04:25:33 10° NNE 04:28:31 19° ENE 04:31:33 10° ESE visible
12 Sep 4.4 06:02:08 10° NW 06:05:39 26° W 06:09:02 10° SSW visible
13 Sep 5.5 04:28:25 10° NNE 04:31:55 26° ENE 04:33:16 22° ESE visible
13 Sep 4.7 06:05:52 10° NW 06:08:52 19° W 06:09:18 18° W visible
